Showing default

XPOSAT, 58694

Orbit data source: Space-Track

XPOSAT, 58694 is a payload satellite owned by ISRO (IN) in LEO that was launched on Mon, 01 Jan 2024 UTC via a PSLV-DL launch vehicle from the Sirharikota (SRI). Payload-class satellites include a variety of spacecraft equipped with specific instruments for various scientific and technological missions. These include communications satellites like Starlink; space stations such as the ISS; scientific satellites like the Hubble; Earth observation satellites from companies like Planet Labs, Umbra, and HawkEye 360; GPS; miniature CubeSats for education and research; and military/defense satellites.

Not visible in the next 10 days
Identifier
58694, 2024-001A
Orbit
LEO
Country
Flag of ININ / IND
Related business
Manufacturer
ISRO
Mission
Operational Civil Astronomy
Bus & Motor
IMS-2, Unknown motor
Mass
469 kg wet, 469 kg dry
Launch date (UTC)
2024-01-01 (2 years ago)
Launch vehicle
PSLV-DL
Launch site
Sirharikota (SRI)
Object type
Payload
Rocket body
Debris
Shape & HBR
Box + 2 Pan, 2.0 m
Radar Cross Section
4.015 m², Large (>1 m²)

Expand to show TLE details & history
Last TLE update: 3 months ago

TLE from 3 months ago
0 XPOSAT
1 58694U 24001A   26076.76662780  .00001916  00000-0  16662-3 0  9993
2 58694   5.9863 122.0275 0009787 264.8772  95.0238 14.79082282119462
Epoch: 2026-03-17T18:23Z
TLE epoch observation values (Epoch: 2026-03-17T18:23:56.641Z)
Latitude
-0.00001°
Longitude
30.70137°
Altitude
629.771 km
Speed
7.546 km/s
True Right ascension
08h 08m 06s
True Declination
0° 00' 00"
Sunlit
Object was in full shadow at epoch
Visualization orbit readout
Latitude
Unknown
Longitude
Unknown
Altitude
Unknown
Speed
Unknown
Apparent Right ascension
Unknown
Apparent Declination
Unknown
Sunlit
N/A
Visualization observer readout
Local Sidereal Time
21:28:53
Azimuth
Unknown
Elevation
Unknown
Doppler factor
Unknown
Orbital elements
Apogee altitude
645.278 km
Perigee altitude
631.544 km
Semi-major axis
7,016.548 km
Eccentricity
0.00098
Inclination
5.9863°
RAAN
122.0275°
Arg. of periapsis
264.8772°
True anomaly
95.13551°
Mean anomaly
95.0238°
Eccentric anomaly
95.07966°
Mean motion
3.69282 °/min
Orbital period
97.49 mins
BSTAR
0.00016662
Loading maneuver chart data...
Computing Atmospheric mass density...
Loading historical data...
Loading historical data...
Loading historical data...
Loading historical data...
Loading historical data...
Loading historical data...
Loading historical data...
Other satellites on launch #1 in the year 2024 (2024-01-01 UTC)

Documentation

Showing up to 5 results
|